User: anonymous   Login
Location: Mentone
(34.5413°N, 85.5351°W)
Time: 14:57:02
(UTC-05:00)
Language:

AO-Echo - Orbit

View from above orbital plane
View from above orbital plane
View from above satellite
View from above satellite

Ground track
Ground track

The orbit data is extracted from the following two-line orbital elements,

1 28375U 04025K   16238.87173635 +.00000028 +00000-0 +21074-4 0  9994
2 28375 098.3301 172.8978 0083858 094.2006 266.8773 14.41793022639208
Epoch (UTC): 25 August 2016 20:55:18
Eccentricity: 0.0083858
inclination: 98.3301°
perigee height: 693 km
apogee height: 812 km
right ascension of ascending node: 172.8978°
argument of perigee: 94.2006°
revolutions per day: 14.41793022
mean anomaly at epoch: 266.8773°
orbit number at epoch: 63920

The dashed part of the orbit path shows where the satellite is in the earth's shadow,  

DLR